This demonstration page uses our WeatherBlox Daily Observations layout. Learn more.

Left ArrowRight Arrow

Hourly Observations for July 5, 2016

Temp ( °F °C ) Dew Point ( °F °C ) Humidity (%) Winds ( mph kmh ) Pressure ( in mb ) Visibility ( mi km ) Precip ( " mm )
12:15 am 00:15 Clear 71 21.6 67 19.6 88 88 SE 5 7 29.77 1008 7 11 N/A
12:35 am 00:35 Clear 71 21.7 67 19.2 86 86 ESE 5 7 29.71 1006 10 16 N/A
12:55 am 00:55 Clear 72 22 67 19.4 85 85 SE 5 7 29.71 1006 10 16 N/A
1:15 am 01:15 Clear 71 21.7 67 19.5 87 87 SE 6 9 29.71 1006 10 16 N/A
1:35 am 01:35 Clear 70 21.1 66 19.1 88 88 SE 5 7 29.74 1007 10 16 N/A
1:55 am 01:55 Clear 68 20.1 65 18.6 91 91 N N/A 29.74 1007 10 16 N/A
2:15 am 02:15 Clear 67 19.6 65 18.4 93 93 ESE 3 6 29.74 1007 10 16 N/A
2:35 am 02:35 Clear 70 21.2 67 19.7 91 91 SSE 5 7 29.74 1007 10 16 N/A
2:55 am 02:55 Clear 70 21.2 67 19.6 91 91 SE 5 7 29.74 1007 10 16 N/A
3:15 am 03:15 Clear 70 21 67 19.5 91 91 SE 3 6 29.74 1007 10 16 N/A
3:35 am 03:35 Clear 66 19.1 64 17.9 93 93 ESE 3 6 29.71 1006 7 11 N/A
3:55 am 03:55 Clear 67 19.4 65 18.4 94 94 SSE 5 7 29.71 1006 7 11 N/A
4:15 am 04:15 Clear 69 20.3 67 19.3 94 94 SE 3 6 29.71 1006 7 11 N/A
4:35 am 04:35 Clear with Mist and Fog 67 19.5 65 18.5 94 94 N N/A 29.71 1006 4 6 N/A
4:55 am 04:55 Mostly Cloudy with Fog 66 18.9 64 18 95 95 N N/A 29.71 1006 1 1 N/A
5:15 am 05:15 Clear with Mist and Fog 64 17.7 62 16.8 95 95 E 3 6 29.74 1007 3 4 N/A
5:35 am 05:35 Clear with Mist and Fog 65 18.6 64 17.8 95 95 SE 6 9 29.71 1006 4 6 N/A
5:55 am 05:55 Clear 69 20.6 68 19.8 95 95 SE 3 6 29.71 1006 7 11 N/A
6:15 am 06:15 Sunny with Mist and Fog 68 20 66 19 94 94 SSE 6 9 29.71 1006 4 6 N/A
6:35 am 06:35 Sunny 70 21.1 68 20.2 95 95 SE 5 7 29.71 1006 7 11 N/A
6:55 am 06:55 Sunny with Mist and Fog 70 21.2 68 20.2 94 94 ESE 3 6 29.68 1005 5 8 N/A
7:15 am 07:15 Sunny with Mist and Fog 71 21.6 69 20.6 94 94 SE 5 7 29.68 1005 5 8 N/A
7:35 am 07:35 Sunny 72 22 69 20.5 91 91 N N/A 29.68 1005 10 16 N/A
7:55 am 07:55 Sunny 71 21.9 69 20.5 92 92 S 3 6 29.68 1005 10 16 N/A
8:15 am 08:15 Sunny 72 22.3 69 20.8 91 91 S 5 7 29.68 1005 10 16 N/A
8:35 am 08:35 Sunny 74 23.1 70 21.2 89 89 SSW 5 7 29.68 1005 10 16 N/A
8:55 am 08:55 Sunny 76 24.2 70 21.1 83 83 N N/A 29.68 1005 10 16 N/A
9:15 am 09:15 Sunny 75 24 68 19.9 78 78 SW 6 9 29.71 1006 10 16 N/A
9:35 am 09:35 Sunny with Nearby Thunderstorms 75 23.9 66 19 74 74 WNW 8 13 29.71 1006 10 16 N/A
9:55 am 09:55 Sunny with Nearby Thunderstorms 75 24 67 19.6 76 76 N N/A 29.71 1006 10 16 N/A
10:15 am 10:15 Sunny 77 24.9 69 20.7 78 78 N N/A 29.71 1006 10 16 N/A
10:35 am 10:35 Sunny 78 25.7 69 20.4 73 73 N N/A 29.68 1005 10 16 N/A
10:55 am 10:55 Sunny 81 27.3 68 20.1 65 65 WSW 3 6 29.65 1004 10 16 N/A
11:15 am 11:15 Sunny 84 28.7 67 19.3 57 57 N N/A 29.62 1003 10 16 N/A
11:35 am 11:35 Sunny 85 29.6 67 19.7 55 55 SSW 6 9 29.62 1003 10 16 N/A
11:55 am 11:55 Sunny 87 30.3 69 20.6 56 56 N N/A 29.62 1003 10 16 N/A
12:15 pm 12:15 Sunny 87 30.8 69 20.5 54 54 SSE 3 6 29.62 1003 10 16 N/A
12:35 pm 12:35 Sunny 89 31.6 68 20.2 51 51 S 3 6 29.62 1003 10 16 N/A
12:55 pm 12:55 Sunny 90 32 68 19.8 48 48 SSE 5 7 29.62 1003 10 16 N/A
1:15 pm 13:15 Sunny 91 32.6 71 21.4 52 52 SSE 7 11 29.59 1002 10 16 N/A
1:35 pm 13:35 Sunny 91 32.7 69 20.6 49 49 W 3 6 29.62 1003 10 16 N/A
1:55 pm 13:55 Sunny 91 32.5 72 22 54 54 N 8 13 29.62 1003 10 16 N/A
2:15 pm 14:15 Sunny 90 32.4 71 21.7 53 53 NNW 7 11 29.62 1003 10 16 N/A
2:35 pm 14:35 Sunny 91 32.8 69 20.6 49 49 NNW 5 7 29.62 1003 10 16 N/A
2:55 pm 14:55 Sunny 91 33 69 20.8 49 49 N 5 7 29.62 1003 10 16 N/A
3:15 pm 15:15 Sunny 92 33.3 71 21.5 50 50 NNW 6 9 29.62 1003 10 16 N/A
3:35 pm 15:35 Sunny 92 33.2 69 20.5 47 47 N 9 15 29.62 1003 10 16 N/A
3:55 pm 15:55 Sunny 91 32.8 65 18.3 42 42 N 7 11 29.59 1002 10 16 N/A
4:15 pm 16:15 Sunny 91 32.9 67 19.3 45 45 N 7 11 29.59 1002 10 16 N/A
4:35 pm 16:35 Sunny 91 33 66 18.8 43 43 NNE 5 7 29.59 1002 10 16 N/A
4:55 pm 16:55 Sunny 91 33 70 21 49 49 NE 7 11 29.59 1002 10 16 N/A
5:15 pm 17:15 Sunny 91 32.6 70 20.9 50 50 NE 12 19 29.59 1002 10 16 N/A
5:35 pm 17:35 Sunny 91 33 69 20.5 48 48 E 9 15 29.59 1002 10 16 N/A
5:55 pm 17:55 Sunny with Nearby Thunderstorms 90 32.2 65 18.6 44 44 E 7 11 29.59 1002 10 16 N/A
6:15 pm 18:15 Sunny with Nearby Thunderstorms 88 30.9 68 20.2 53 53 SSE 12 19 29.62 1003 10 16 N/A
6:35 pm 18:35 Sunny 87 30.5 67 19.6 52 52 SE 7 11 29.62 1003 10 16 N/A
6:55 pm 18:55 Partly Cloudy 84 29.1 63 17.1 48 48 SE 8 13 29.65 1004 10 16 N/A
7:15 pm 19:15 Partly Cloudy 83 28.2 62 16.6 49 49 SE 8 13 29.65 1004 10 16 N/A
7:35 pm 19:35 Mostly Cloudy 82 27.5 63 17.1 53 53 SE 8 13 29.65 1004 10 16 N/A
7:55 pm 19:55 Mostly Cloudy with Light Rain 78 25.6 63 17.2 60 60 N N/A 29.65 1004 10 16 N/A
8:15 pm 20:15 Sunny 75 23.8 65 18.5 72 72 N N/A 29.68 1005 10 16 N/A
8:35 pm 20:35 Sunny with Nearby Thunderstorms 74 23.2 66 18.9 77 77 NE 3 6 29.68 1005 10 16 N/A
8:55 pm 20:55 Sunny 73 23 66 19.1 79 79 N 5 7 29.68 1005 10 16 N/A
9:15 pm 21:15 Partly Cloudy 73 22.6 66 19.1 81 81 N N/A 29.71 1006 10 16 N/A
9:35 pm 21:35 Partly Cloudy 73 22.9 67 19.4 81 81 W 6 9 29.71 1006 10 16 N/A
9:55 pm 21:55 Clear 72 22 67 19.6 86 86 W 6 9 29.71 1006 10 16 N/A
10:15 pm 22:15 Clear 71 21.7 67 19.5 87 87 N N/A 29.71 1006 10 16 N/A
10:35 pm 22:35 Clear with Nearby Thunderstorms 71 21.6 67 19.5 88 88 N N/A 29.71 1006 10 16 N/A
10:55 pm 22:55 Clear 69 20.8 66 19.1 90 90 N N/A 29.74 1007 7 11 N/A
11:15 pm 23:15 Clear 70 21 65 18.6 86 86 N N/A 29.74 1007 10 16 N/A
11:35 pm 23:35 Clear 70 21 65 18.4 85 85 W 7 11 29.77 1008 10 16 N/A
11:55 pm 23:55 Clear 69 20.5 65 18.6 89 89 WNW 5 7 29.77 1008 10 16 N/A

Powered by AerisWeather